Temperature
18 18 17 17 17 17 18 19 19 19 19 18 18 17 16 14 14 13 13 12 12 12 12 12 12 12 12 12 12 12 12 11 11 11 11 11 10 10 10 10 10 10 10 10
17 17 17 16 17 17 17 17 18 18 17 18 17 16 15 14 13 13 12 12 12 12 12 12 12 11 11 11 11 11 11 11 11 11 10 10 10 10 10 10 10 10 9 9
18 17 17 17 17 17 16 16 17 17 17 17 16 15 15 14 13 12 12 12 12 12 12 11 11 11 11 11 11 11 11 11 11 10 10 10 10 10 9 9 9 9 9 9
17 17 16 17 16 16 16 16 16 16 16 16 15 14 14 13 12 12 12 12 11 11 11 11 11 11 11 11 11 10 10 10 10 10 10 10 9 9 9 9 9 9 9 9
17 17 17 16 15 15 15 15 15 15 15 14 13 13 13 12 12 12 11 11 11 11 11 11 11 10 10 10 10 10 10 10 10 10 9 9 9 9 9 8 8 8 8 8
16 16 16 16 15 14 15 15 15 14 14 13 13 15 15 12 11 11 11 11 10 10 10 10 10 10 10 10 10 9 9 9 9 9 9 9 9 9 8 8 8 8 8 8
16 16 16 15 13 14 15 16 14 13 12 12 13 14 12 11 10 10 10 10 10 10 10 10 10 10 9 9 9 9 9 9 9 9 9 8 8 8 8 8 8 8 8 8
15 15 16 13 13 14 15 13 12 12 12 11 11 11 10 10 10 10 10 10 10 10 10 9 9 9 9 9 9 9 9 9 8 8 8 8 8 8 8 7 7 7 7 7
15 15 14 12 13 12 12 12 12 11 11 10 10 10 10 9 9 9 9 9 9 9 9 9 9 9 9 8 8 8 8 8 8 8 8 8 7 7 7 7 7 7 7 7
14 14 13 12 11 11 11 11 11 11 11 10 10 10 9 9 9 9 9 9 9 9 9 9 9 9 8 8 8 8 7 7 7 7 7 7 7 7 7 7 6 6 6 6
14 14 12 11 11 11 10 10 10 10 10 10 10 9 9 9 8 8 8 8 8 8 8 8 8 8 8 7 7 7 7 7 7 7 7 7 6 6 6 6 6 6 6 6
14 14 13 13 11 11 10 10 10 10 10 9 9 9 9 8 8 8 8 8 8 8 8 8 7 7 7 7 7 7 7 6 6 6 6 6 6 6 6 6 6 6 6 6
13 12 11 11 11 10 10 10 10 10 9 9 9 8 8 8 8 8 8 7 7 7 7 7 7 7 7 7 6 6 6 6 6 6 6 6 5 5 5 5 5 5 5 5
10 10 10 10 10 10 10 9 9 9 9 9 8 8 8 8 7 7 7 7 7 7 7 7 7 7 6 6 6 6 6 6 6 6 5 5 5 5 5 5 5 5 5 5
10 10 10 10 9 9 9 9 9 8 8 8 8 8 8 7 7 7 7 7 7 7 6 6 6 6 6 6 6 5 5 5 5 5 5 5 5 5 5 5 5 4 4 4
9 9 9 9 9 9 9 8 8 8 8 8 8 7 7 7 7 7 7 7 6 6 6 6 6 6 6 6 5 5 5 5 5 5 5 4 4 4 4 4 4 4 4 4
9 9 8 8 8 8 8 8 8 8 8 7 7 7 7 7 6 6 6 6 6 6 6 6 6 6 5 5 5 5 5 5 5 4 4 4 4 4 4 4 3 3 3 3
9 9 9 9 9 8 8 8 7 7 7 7 7 7 6 6 6 6 6 6 6 6 6 5 5 5 5 5 5 5 5 4 4 4 4 4 4 3 3 3 3 3 3 3
8 8 8 8 8 8 8 7 7 7 7 7 6 6 6 6 6 6 5 5 5 5 5 5 5 5 5 5 5 5 4 4 4 4 4 3 3 3 3 3 2 2 2 2
8 8 8 8 7 7 7 7 7 7 6 6 6 6 6 5 5 5 5 5 5 5 5 5 5 5 5 5 4 4 4 4 4 3 3 3 3 3 2 2 2 2 2 2
8 8 7 7 7 7 7 7 6 6 6 6 6 5 5 5 5 5 4 5 5 5 5 5 5 4 4 4 4 4 4 3 3 3 3 3 2 2 2 2 2 1 1 1
7 7 7 7 6 6 6 6 6 6 6 5 5 5 5 5 4 4 4 4 4 4 4 4 4 4 4 4 4 3 3 3 3 3 2 2 2 2 2 1 1 1 1 1
7 7 7 6 6 6 6 5 5 5 5 5 5 5 5 4 4 4 4 4 4 4 4 4 4 4 4 3 3 3 3 2 2 2 2 2 2 1 1 1 1 1 1 1
6 6 6 6 6 5 5 5 5 5 5 5 4 4 4 4 4 3 3 4 4 4 3 4 3 3 3 3 3 2 2 2 2 2 1 1 1 1 1 1 1 0 0 0
6 6 6 5 5 5 5 5 4 4 4 4 4 4 3 3 3 3 3 3 3 3 3 3 3 3 2 2 2 2 2 1 1 1 1 1 1 1 0 0 0 0 0 -0
6 5 5 5 5 5 4 4 4 4 4 4 3 3 3 3 3 3 3 3 3 3 3 2 2 2 2 2 2 1 1 1 1 1 1 0 0 0 0 -0 -0 -0 -0 -0
5 5 5 5 5 4 4 4 4 3 3 3 3 3 3 3 3 3 2 2 2 2 2 2 2 2 2 1 1 1 1 1 1 0 0 0 0 -0 -0 -0 -0 -1 -1 -1
Wind_Speed
6 3 3 5 6 7 10 11 9 8 7 7 5 4 3 2 2 2 2 2 2 1 1 2 2 3 3 3 3 3 3 2 2 2 2 2 2 2 2 2 2 2 2 2
5 3 4 5 7 9 9 10 10 10 9 7 4 2 3 3 3 3 3 2 2 1 1 1 1 2 3 3 3 3 3 2 2 2 2 2 2 2 2 2 2 2 2 2
6 3 4 7 7 7 7 6 8 10 8 4 3 3 4 4 4 4 4 3 2 2 2 2 2 2 2 3 3 3 3 2 2 2 2 2 2 2 2 2 2 2 3 3
5 4 6 1 1 2 5 5 6 6 5 4 3 3 2 3 3 4 4 3 3 2 2 2 2 2 2 3 3 3 3 2 2 2 2 2 2 2 3 3 3 3 3 3
5 6 6 3 1 2 4 4 3 5 5 3 1 1 2 2 3 3 3 3 3 3 3 3 2 2 2 3 3 3 2 3 2 3 2 2 2 3 3 3 3 3 3 4
5 6 6 1 1 2 4 4 1 3 3 2 2 3 2 0 1 1 1 2 2 2 3 3 3 3 3 3 3 2 2 3 3 3 3 3 3 3 3 3 3 3 3 4
8 7 5 1 1 3 4 2 2 1 1 2 3 3 2 1 0 1 1 2 2 2 2 2 3 3 3 3 3 3 2 2 2 3 3 3 3 2 2 3 3 3 4 4
6 7 5 2 3 3 1 3 1 1 0 1 1 3 2 1 1 0 1 2 2 2 2 2 3 4 4 3 3 2 2 2 2 2 2 2 2 2 2 2 3 3 3 4
4 3 1 3 2 0 1 1 1 0 0 1 1 1 2 1 1 1 0 2 2 2 2 2 2 3 3 3 2 2 2 3 2 2 2 2 2 2 2 2 2 3 3 3
4 5 3 3 3 2 2 1 1 1 1 1 0 0 1 2 2 1 0 0 2 2 2 2 2 3 3 2 3 3 3 3 2 2 2 2 2 2 2 2 2 3 3 3
6 5 4 5 5 4 2 2 1 1 1 2 1 1 1 1 2 1 1 1 1 2 2 2 2 2 3 3 3 4 3 3 2 2 2 2 2 2 3 2 2 3 4 4
6 5 5 5 4 4 4 3 3 2 2 2 2 2 1 2 2 1 1 1 2 2 2 3 2 3 3 3 4 4 3 2 2 2 2 2 2 2 2 3 3 4 5 6
6 4 4 3 3 4 4 4 3 3 3 2 2 2 2 2 2 1 2 2 2 2 3 3 3 3 3 3 4 4 3 2 2 2 2 2 3 3 3 3 2 3 4 5
5 3 4 4 4 4 4 3 3 2 2 2 2 2 2 2 2 2 2 3 3 3 3 3 3 3 3 3 4 4 3 3 2 3 3 3 3 3 3 4 4 4 4 4
7 6 4 3 3 3 3 3 3 2 1 1 1 2 2 3 3 3 3 3 2 2 3 3 3 3 2 3 4 4 4 3 3 3 3 3 3 3 3 4 4 4 4 3
7 6 5 5 5 4 4 4 4 3 2 2 3 3 3 3 3 3 2 2 2 3 3 3 3 3 2 3 4 4 3 3 3 3 3 2 3 3 3 4 4 4 4 4
7 7 7 7 6 6 5 5 5 4 4 4 3 3 3 3 3 3 2 2 3 3 3 3 3 2 3 3 4 3 3 3 3 3 3 3 3 4 4 4 4 4 4 4
8 8 8 7 7 6 6 5 4 4 4 4 3 3 3 3 4 4 3 2 2 2 3 2 2 2 3 3 3 3 3 3 3 3 3 3 4 4 4 4 5 5 4 4
7 6 6 6 6 6 5 5 4 4 3 3 3 4 4 4 4 3 3 3 3 3 3 2 2 3 3 3 3 3 3 3 3 4 4 3 4 4 4 4 4 5 4 4
6 5 5 5 4 4 4 4 4 3 3 3 3 3 4 3 3 3 3 4 4 3 3 2 3 3 3 3 3 4 4 4 4 4 4 4 4 4 4 4 5 5 5 5
6 6 5 5 4 4 4 4 4 4 3 4 4 4 4 4 3 4 4 4 4 3 3 2 3 3 3 3 4 4 4 4 4 4 4 4 4 4 4 4 5 5 5 5
6 6 6 5 4 4 4 4 4 4 4 4 4 4 4 4 4 4 5 4 3 2 2 2 2 2 2 2 3 3 4 4 4 4 4 4 4 4 5 5 5 5 5 5
5 6 5 5 5 4 4 4 4 4 5 5 5 5 5 4 4 4 4 3 3 3 3 3 3 2 3 3 3 3 3 4 4 4 4 4 4 4 5 5 5 5 5 5
5 5 5 5 5 5 5 4 4 4 4 5 5 5 4 4 4 4 3 3 2 3 3 3 2 3 3 3 3 4 4 4 4 4 4 4 4 4 4 4 5 5 5 6
5 5 5 5 5 5 5 4 4 4 4 4 4 4 4 4 4 3 3 3 3 3 3 3 3 4 4 4 4 4 4 4 4 4 4 4 4 4 4 4 5 5 5 5
5 4 4 5 5 4 4 4 4 4 4 3 3 3 3 3 3 3 3 3 3 3 3 2 3 3 3 4 4 4 4 4 4 4 4 4 4 4 4 5 6 5 5 5
4 4 3 3 3 4 4 4 4 4 4 4 4 3 3 3 3 3 3 3 3 3 3 2 2 3 3 3 4 4 4 3 3 4 4 4 4 4 4 5 5 5 5 5
Wind_Direction
264 273 249 257 254 230 233 245 255 263 268 278 267 249 224 200 186 175 161 151 150 153 154 155 164 179 176 170 168 169 172 183 199 205 205 212 225 238 244 255 263 266 266 269
246 234 235 262 261 240 240 251 250 258 272 285 277 235 214 207 202 206 204 201 200 195 174 179 178 187 184 175 173 171 174 182 186 202 205 214 227 237 248 260 266 264 261 264
254 237 257 261 256 234 221 233 243 254 265 258 244 227 217 211 215 217 215 215 217 218 208 207 211 200 188 179 174 172 172 173 181 204 214 223 229 234 248 259 266 270 266 267
260 249 249 288 47 227 226 259 259 264 274 264 263 255 229 218 221 223 217 218 223 223 215 213 209 203 184 175 177 179 181 185 198 220 229 233 236 247 255 259 260 266 276 275
240 252 259 261 232 230 229 260 278 260 266 277 304 187 212 222 236 236 226 222 216 212 208 200 188 184 179 175 180 186 197 205 212 220 225 230 236 249 258 262 262 267 274 279
234 248 256 275 360 269 231 250 326 267 258 233 199 231 247 50 271 236 220 215 206 200 198 194 185 178 183 186 189 206 220 224 223 225 227 236 242 248 255 260 262 268 273 277
236 245 257 354 16 188 218 309 34 281 223 189 225 314 11 50 1 199 194 188 189 193 198 199 187 184 192 198 214 222 225 226 224 228 236 244 246 248 254 259 263 269 273 278
226 236 246 114 152 199 325 32 45 32 173 193 357 37 51 60 34 111 179 181 186 192 204 207 197 195 200 213 226 229 224 227 232 237 244 250 251 252 256 263 265 272 278 285
226 242 18 163 183 324 359 10 25 7 208 153 90 39 33 38 26 14 155 175 179 187 200 211 211 212 215 216 216 222 226 227 234 242 241 237 240 252 257 263 272 278 281 288
238 247 244 233 239 254 244 271 311 291 179 178 193 355 347 356 4 2 296 194 184 188 201 218 226 228 233 218 215 215 224 230 230 236 245 231 235 245 254 259 272 279 284 288
240 252 256 242 241 244 244 271 278 265 233 225 241 249 289 312 323 324 300 257 228 222 228 238 233 230 231 216 212 219 223 230 235 239 250 245 243 257 254 253 271 275 277 279
237 229 230 238 232 232 235 241 238 233 238 239 241 250 269 286 296 304 283 265 257 255 251 247 238 237 236 223 218 220 221 228 236 242 254 262 261 268 290 276 286 285 295 295
249 241 236 247 232 225 230 233 228 224 220 226 246 251 261 281 287 297 283 270 259 252 251 249 241 240 243 234 226 228 232 235 240 242 248 259 261 260 273 288 281 270 279 292
223 209 218 223 227 218 218 213 208 214 225 225 228 238 257 274 284 282 282 280 269 254 250 247 242 241 243 235 231 236 240 242 243 242 247 254 260 261 263 270 279 283 282 283
218 225 230 219 201 198 192 183 183 195 206 230 232 234 243 256 269 277 282 286 273 258 255 253 251 250 244 237 235 237 237 237 241 247 248 253 263 264 265 268 276 284 291 294
215 217 214 206 201 197 196 201 212 221 226 236 247 255 256 259 269 275 272 262 255 261 262 260 260 259 240 231 234 234 233 241 251 246 247 256 265 269 272 273 277 280 284 292
201 210 209 210 211 211 214 219 225 227 232 239 249 258 262 265 267 267 266 264 261 267 263 255 260 262 246 234 232 235 232 226 238 249 246 254 264 266 269 272 274 279 282 291
219 221 215 213 212 213 219 224 228 230 236 244 246 249 252 255 262 268 269 264 265 274 278 274 271 264 250 240 237 238 233 230 232 245 253 256 263 266 268 268 271 277 284 287
214 218 216 213 213 213 217 221 225 230 232 227 228 239 246 252 260 264 263 255 257 270 284 286 279 256 251 251 255 239 237 237 239 245 251 257 261 263 269 274 276 277 280 280
203 205 204 204 208 212 214 214 214 219 226 225 228 236 242 245 245 249 251 253 259 270 281 283 259 254 254 249 250 247 243 244 248 248 250 250 252 259 264 270 275 280 280 278
197 196 194 197 202 210 211 208 206 213 221 224 228 234 241 246 244 242 247 259 270 280 272 262 251 259 259 258 242 245 247 248 249 249 251 254 258 261 264 267 270 275 278 279
196 195 196 198 201 207 211 212 212 215 220 226 234 240 243 247 249 250 250 258 273 282 259 246 248 266 282 268 242 247 251 254 256 258 259 260 263 267 270 272 271 273 275 277
195 198 200 203 206 208 209 213 217 220 223 229 234 238 241 244 244 246 257 267 269 257 251 249 265 263 253 243 245 245 250 256 260 263 264 265 267 270 273 275 277 278 277 277
197 199 204 204 202 206 213 221 226 230 234 240 240 238 240 244 247 246 261 263 256 247 248 250 244 239 236 240 243 247 251 256 261 265 267 268 270 272 275 278 281 283 281 281
202 200 198 199 206 214 218 218 224 230 233 238 241 240 238 240 248 252 252 251 244 235 247 241 228 227 230 243 244 249 254 258 265 268 267 269 271 274 276 278 279 281 281 280
202 204 209 215 217 216 213 214 220 224 225 230 238 237 235 237 241 242 242 241 240 241 245 243 234 230 238 245 248 251 254 257 257 259 264 269 271 274 276 277 278 278 278 277
203 207 211 215 217 216 215 217 222 227 228 229 238 239 232 231 232 233 236 237 236 238 243 245 243 237 240 248 254 256 257 259 260 262 264 266 269 271 274 275 276 277 278 278
Height
1502 1503 1505 1505 1505 1505 1504 1500 1501 1499 1501 1502 1504 1507 1509 1511 1512 1513 1513 1514 1515 1516 1517 1518 1519 1520 1521 1522 1523 1525 1526 1527 1528 1528 1529 1529 1529 1530 1530 1529 1529 1529 1529 1528
1503 1503 1504 1506 1505 1504 1504 1502 1501 1501 1502 1502 1504 1507 1508 1509 1510 1511 1512 1513 1514 1515 1515 1516 1517 1518 1519 1520 1521 1522 1523 1525 1525 1526 1526 1527 1527 1527 1527 1527 1527 1527 1526 1526
1500 1503 1504 1504 1501 1502 1502 1502 1501 1501 1501 1502 1504 1505 1506 1507 1508 1509 1510 1511 1512 1513 1513 1514 1515 1516 1517 1518 1519 1520 1521 1522 1523 1523 1524 1524 1524 1524 1524 1524 1524 1524 1524 1523
1501 1504 1508 1500 1500 1500 1501 1502 1501 1500 1501 1502 1503 1504 1505 1506 1507 1507 1508 1509 1510 1511 1512 1512 1513 1514 1515 1516 1517 1518 1519 1519 1520 1521 1521 1521 1521 1521 1522 1522 1522 1521 1521 1521
1502 1502 1499 1499 1500 1501 1501 1500 1501 1501 1502 1503 1503 1503 1503 1505 1505 1506 1507 1507 1508 1509 1509 1510 1511 1511 1513 1514 1515 1516 1516 1517 1518 1518 1518 1518 1518 1518 1519 1519 1519 1518 1518 1518
1501 1503 1501 1498 1500 1501 1502 1500 1500 1501 1501 1502 1502 1500 1501 1503 1503 1504 1505 1505 1506 1506 1507 1508 1508 1509 1510 1511 1512 1513 1513 1514 1515 1515 1515 1515 1516 1516 1516 1516 1516 1515 1515 1515
1500 1500 1496 1499 1501 1501 1502 1499 1500 1500 1501 1502 1502 1501 1502 1501 1501 1502 1502 1503 1503 1504 1505 1505 1506 1507 1508 1509 1509 1510 1511 1512 1512 1512 1512 1512 1513 1513 1513 1513 1513 1513 1512 1512
1498 1499 1499 1500 1500 1500 1499 1500 1500 1500 1501 1502 1502 1501 1501 1500 1500 1500 1500 1500 1500 1501 1502 1503 1504 1505 1505 1506 1507 1508 1508 1509 1509 1510 1510 1510 1510 1510 1510 1510 1510 1510 1509 1509
1496 1497 1498 1499 1499 1499 1500 1500 1500 1500 1500 1501 1500 1500 1500 1499 1499 1498 1498 1498 1498 1499 1500 1501 1502 1502 1503 1504 1504 1505 1505 1506 1506 1507 1507 1507 1507 1506 1506 1506 1507 1506 1506 1505
1496 1495 1497 1498 1499 1498 1498 1499 1499 1500 1500 1499 1499 1499 1499 1499 1498 1497 1497 1497 1497 1498 1498 1499 1499 1500 1501 1501 1502 1502 1502 1503 1503 1503 1503 1504 1504 1504 1503 1503 1503 1503 1503 1502
1493 1494 1495 1496 1497 1497 1497 1497 1498 1498 1498 1498 1498 1498 1498 1497 1497 1496 1496 1496 1496 1496 1496 1497 1497 1497 1498 1499 1499 1500 1500 1500 1500 1500 1500 1500 1500 1500 1500 1500 1500 1500 1499 1498
1488 1490 1491 1492 1494 1495 1495 1495 1496 1496 1496 1497 1497 1497 1496 1496 1495 1495 1494 1494 1494 1495 1495 1495 1495 1495 1495 1496 1496 1497 1497 1497 1497 1497 1497 1497 1497 1497 1497 1497 1497 1496 1496 1495
1487 1488 1490 1490 1491 1492 1493 1493 1494 1494 1494 1495 1495 1495 1495 1494 1494 1493 1493 1493 1493 1493 1493 1493 1493 1493 1493 1493 1494 1494 1494 1494 1494 1494 1494 1494 1494 1494 1493 1493 1493 1492 1492 1491
1485 1486 1487 1488 1489 1489 1490 1490 1491 1492 1492 1493 1493 1493 1493 1493 1492 1491 1491 1491 1491 1490 1490 1490 1490 1490 1490 1491 1491 1492 1492 1492 1492 1491 1491 1491 1491 1490 1490 1489 1488 1488 1488 1487
1483 1484 1485 1485 1486 1487 1487 1488 1489 1489 1490 1491 1491 1491 1491 1490 1490 1490 1490 1489 1488 1488 1488 1488 1487 1487 1487 1488 1488 1489 1489 1489 1489 1489 1488 1488 1488 1487 1487 1486 1485 1484 1483 1482
1479 1480 1481 1482 1483 1484 1485 1486 1486 1487 1487 1488 1488 1488 1488 1488 1488 1488 1487 1487 1486 1486 1485 1485 1485 1485 1485 1485 1485 1486 1486 1486 1486 1485 1485 1485 1484 1484 1483 1482 1481 1480 1479 1478
1476 1476 1478 1479 1480 1481 1482 1483 1484 1484 1484 1485 1485 1485 1485 1485 1485 1485 1485 1484 1484 1484 1483 1483 1483 1482 1482 1482 1482 1483 1483 1483 1483 1482 1482 1482 1481 1480 1479 1478 1477 1476 1475 1474
1471 1473 1474 1475 1476 1478 1479 1480 1481 1481 1482 1482 1482 1482 1482 1482 1482 1482 1482 1481 1481 1481 1481 1480 1480 1480 1479 1479 1480 1480 1480 1480 1479 1479 1479 1478 1477 1477 1476 1475 1473 1472 1471 1470
1468 1469 1471 1472 1473 1474 1475 1476 1477 1478 1478 1478 1479 1479 1479 1479 1479 1479 1479 1479 1478 1478 1478 1477 1477 1477 1477 1477 1477 1476 1476 1476 1476 1475 1475 1474 1473 1473 1472 1470 1469 1468 1467 1466
1464 1466 1467 1469 1470 1471 1472 1473 1474 1474 1475 1475 1475 1476 1476 1476 1476 1476 1476 1475 1475 1475 1475 1474 1474 1474 1474 1474 1473 1473 1473 1472 1472 1471 1471 1470 1469 1468 1467 1466 1465 1464 1462 1461
1461 1462 1464 1465 1467 1468 1469 1470 1470 1471 1472 1472 1472 1472 1472 1473 1473 1473 1472 1472 1472 1472 1472 1471 1471 1470 1470 1470 1470 1469 1469 1468 1468 1467 1466 1466 1465 1464 1463 1462 1461 1459 1458 1457
1457 1459 1461 1462 1463 1465 1466 1467 1467 1468 1468 1469 1469 1469 1469 1469 1469 1469 1469 1469 1468 1468 1468 1468 1467 1467 1466 1466 1466 1465 1465 1465 1464 1463 1462 1462 1461 1460 1459 1458 1457 1455 1454 1453
1454 1456 1457 1459 1460 1461 1462 1463 1464 1464 1465 1465 1465 1465 1465 1465 1465 1465 1465 1465 1465 1465 1465 1464 1464 1464 1463 1462 1462 1461 1461 1461 1460 1459 1459 1458 1457 1456 1455 1454 1453 1451 1450 1448
1451 1453 1454 1456 1457 1458 1458 1459 1460 1460 1461 1461 1461 1461 1461 1461 1461 1461 1461 1461 1461 1461 1461 1461 1460 1460 1459 1459 1458 1457 1457 1457 1456 1456 1455 1454 1453 1452 1451 1450 1448 1447 1445 1444
1448 1449 1451 1452 1453 1453 1454 1455 1456 1456 1457 1457 1457 1457 1457 1457 1457 1457 1457 1457 1457 1457 1457 1457 1456 1456 1455 1454 1454 1453 1453 1452 1452 1452 1451 1450 1449 1448 1447 1445 1444 1442 1441 1439
1445 1446 1447 1448 1449 1450 1450 1451 1451 1452 1452 1452 1453 1453 1453 1453 1453 1453 1453 1453 1453 1453 1453 1452 1452 1452 1451 1450 1450 1449 1449 1448 1448 1447 1446 1445 1445 1443 1442 1441 1439 1438 1436 1435
1442 1443 1444 1444 1445 1446 1446 1447 1447 1448 1448 1448 1449 1449 1449 1449 1449 1449 1449 1449 1449 1449 1449 1448 1448 1448 1447 1447 1446 1446 1445 1445 1444 1443 1442 1442 1441 1439 1438 1437 1436 1434 1432 1430